ASL233 LYBE-LQSA

Flight info

Callsign ASL233
Flight time 0h 36m
Altitude 20000
Route VAL Y88 VEBAR
Aircraft A320/M-SDE3FGHIRWY/LB1

Departure

Time 2026-05-04 01:37
Airport Belgrade Nikola Tesla Airport (LYBE)

Arrival

Time 2026-05-04 02:14
Airport Sarajevo International Airport (LQSA)
Time Latitude Longitude Altitude Speed Heading
2026-05-04 01:22 44.81974 20.29314 326 ft 0 kts 271°
2026-05-04 01:29 44.81974 20.29315 328 ft 2 kts 271°
2026-05-04 01:29 44.81974 20.29339 324 ft 2 kts 271°
2026-05-04 01:29 44.81973 20.29363 324 ft 2 kts 271°
2026-05-04 01:29 44.81969 20.29386 324 ft 2 kts 335°
2026-05-04 01:30 44.81962 20.29390 324 ft 0 kts
2026-05-04 01:33 44.81970 20.29393 324 ft 3 kts 18°
2026-05-04 01:33 44.82011 20.29424 327 ft 9 kts 31°
2026-05-04 01:33 44.82064 20.29489 326 ft 12 kts 43°
2026-05-04 01:33 44.82116 20.29585 327 ft 14 kts 96°
2026-05-04 01:34 44.82061 20.29714 328 ft 17 kts 122°
2026-05-04 01:34 44.82016 20.29820 327 ft 4 kts 83°
2026-05-04 01:34 44.82027 20.29806 327 ft 4 kts 298°
2026-05-04 01:34 44.82055 20.29734 326 ft 13 kts 300°
2026-05-04 01:35 44.82106 20.29609 329 ft 17 kts 300°
2026-05-04 01:35 44.82174 20.29455 326 ft 20 kts 304°
2026-05-04 01:35 44.82255 20.29277 326 ft 24 kts 302°
2026-05-04 01:35 44.82349 20.29069 324 ft 27 kts 302°
2026-05-04 01:36 44.82443 20.28874 323 ft 15 kts 326°
2026-05-04 01:36 44.82538 20.28874 323 ft 15 kts 36°
2026-05-04 01:36 44.82611 20.29000 324 ft 18 kts 65°
2026-05-04 01:36 44.82612 20.29187 326 ft 20 kts 109°
2026-05-04 01:37 44.82485 20.29472 328 ft 65 kts 122°
2026-05-04 01:37 44.82126 20.30278 328 ft 126 kts 122°
2026-05-04 01:37 44.81593 20.31451 579 ft 148 kts 123°
2026-05-04 01:37 44.81024 20.32704 1108 ft 155 kts 123°
2026-05-04 01:38 44.80443 20.34011 1665 ft 164 kts 122°
2026-05-04 01:38 44.79798 20.35464 1965 ft 187 kts 122°
2026-05-04 01:38 44.79044 20.37102 2279 ft 212 kts 123°
2026-05-04 01:38 44.78201 20.38928 2818 ft 230 kts 122°
2026-05-04 01:39 44.77328 20.40840 3730 ft 233 kts 121°
2026-05-04 01:39 44.76460 20.42767 4729 ft 233 kts 121°
2026-05-04 01:39 44.75598 20.44703 5702 ft 235 kts 120°
2026-05-04 01:39 44.74726 20.46671 6601 ft 239 kts 120°
2026-05-04 01:40 44.73836 20.48683 7417 ft 245 kts 120°
2026-05-04 01:40 44.72926 20.50741 8249 ft 250 kts 119°
2026-05-04 01:40 44.71999 20.52846 9077 ft 256 kts 118°
2026-05-04 01:40 44.71054 20.55002 9902 ft 262 kts 117°
2026-05-04 01:41 44.70090 20.57205 10667 ft 267 kts 117°
2026-05-04 01:41 44.68969 20.59311 11453 ft 275 kts 133°
2026-05-04 01:41 44.67327 20.60770 12232 ft 287 kts 156°
2026-05-04 01:41 44.65287 20.61252 12621 ft 313 kts 182°
2026-05-04 01:42 44.63122 20.60560 13221 ft 325 kts 194°
2026-05-04 01:42 44.60931 20.59673 13933 ft 330 kts 194°
2026-05-04 01:42 44.58707 20.58789 14585 ft 335 kts 193°
2026-05-04 01:42 44.56446 20.57906 15240 ft 339 kts 193°
2026-05-04 01:43 44.54153 20.57022 15897 ft 344 kts 193°
2026-05-04 01:43 44.51833 20.56131 16551 ft 348 kts 193°
2026-05-04 01:43 44.49541 20.54945 17186 ft 355 kts 206°
2026-05-04 01:43 44.47480 20.52989 17800 ft 361 kts 223°
2026-05-04 01:44 44.45827 20.50332 18419 ft 364 kts 239°
2026-05-04 01:44 44.44713 20.47214 18984 ft 363 kts 255°
2026-05-04 01:44 44.44002 20.43777 19590 ft 364 kts 258°
2026-05-04 01:44 44.43324 20.40398 20042 ft 367 kts 258°
2026-05-04 01:45 44.42625 20.36966 20167 ft 369 kts 258°
2026-05-04 01:45 44.41900 20.33417 20198 ft 390 kts 258°
2026-05-04 01:45 44.40332 20.25725 20198 ft 427 kts 257°
2026-05-04 01:46 44.39506 20.21720 20191 ft 429 kts 257°
2026-05-04 01:46 44.38674 20.17716 20198 ft 429 kts 257°
2026-05-04 01:46 44.37840 20.13707 20199 ft 429 kts 257°
2026-05-04 01:46 44.37008 20.09703 20193 ft 429 kts 257°
2026-05-04 01:47 44.36180 20.05704 20196 ft 429 kts 257°
2026-05-04 01:47 44.35353 20.01702 20196 ft 428 kts 257°
2026-05-04 01:47 44.34526 19.97705 20201 ft 428 kts 257°
2026-05-04 01:47 44.33695 19.93713 20199 ft 428 kts 257°
2026-05-04 01:48 44.32862 19.89722 20194 ft 428 kts 257°
2026-05-04 01:48 44.31995 19.85738 20206 ft 429 kts 255°
2026-05-04 01:48 44.31018 19.81802 20206 ft 430 kts 253°
2026-05-04 01:48 44.29955 19.77896 20201 ft 430 kts 251°
2026-05-04 01:49 44.28854 19.74015 20188 ft 430 kts 251°
2026-05-04 01:49 44.27747 19.70147 20200 ft 429 kts 251°
2026-05-04 01:49 44.26652 19.66275 20210 ft 429 kts 251°
2026-05-04 01:49 44.25575 19.62401 20211 ft 428 kts 252°
2026-05-04 01:50 44.24511 19.58523 20213 ft 428 kts 252°
2026-05-04 01:50 44.23455 19.54650 20219 ft 427 kts 252°
2026-05-04 01:50 44.22418 19.50829 20218 ft 427 kts 252°
2026-05-04 01:50 44.21370 19.46967 20218 ft 426 kts 252°
2026-05-04 01:51 44.20320 19.43107 20221 ft 426 kts 252°
2026-05-04 01:51 44.19265 19.39256 20216 ft 426 kts 252°
2026-05-04 01:51 44.18207 19.35403 20213 ft 425 kts 252°
2026-05-04 01:51 44.17169 19.31543 20212 ft 425 kts 252°
2026-05-04 01:52 44.16154 19.27674 20190 ft 425 kts 252°
2026-05-04 01:52 44.15152 19.23808 20201 ft 424 kts 253°
2026-05-04 01:52 44.14154 19.19949 20211 ft 423 kts 253°
2026-05-04 01:52 44.13301 19.16051 20210 ft 420 kts 259°
2026-05-04 01:53 44.12600 19.12111 20215 ft 420 kts 259°
2026-05-04 01:53 44.11891 19.08170 20220 ft 420 kts 259°
2026-05-04 01:53 44.11183 19.04263 20185 ft 410 kts 259°
2026-05-04 01:53 44.10492 19.00485 20052 ft 397 kts 258°
2026-05-04 01:54 44.09816 18.96804 19716 ft 389 kts 259°
2026-05-04 01:54 44.09153 18.93179 19260 ft 386 kts 259°
2026-05-04 01:54 44.08494 18.89563 18770 ft 384 kts 259°
2026-05-04 01:54 44.07840 18.85976 18256 ft 382 kts 258°
2026-05-04 01:55 44.07186 18.82399 17733 ft 380 kts 258°
2026-05-04 01:55 44.06534 18.78858 17255 ft 376 kts 258°
2026-05-04 01:55 44.05888 18.75355 16773 ft 372 kts 258°
2026-05-04 01:55 44.05248 18.71885 16291 ft 369 kts 258°
2026-05-04 01:56 44.04610 18.68439 15801 ft 367 kts 258°
2026-05-04 01:56 44.03975 18.65020 15330 ft 364 kts 258°
2026-05-04 01:56 44.03341 18.61627 14868 ft 361 kts 258°
2026-05-04 01:56 44.02712 18.58262 14429 ft 358 kts 258°
2026-05-04 01:57 44.02088 18.54923 13964 ft 356 kts 258°
2026-05-04 01:57 44.01470 18.51606 13488 ft 353 kts 258°
2026-05-04 01:57 44.00859 18.48313 12991 ft 350 kts 258°
2026-05-04 01:57 44.00254 18.45050 12506 ft 348 kts 258°
2026-05-04 01:58 43.99654 18.41840 12315 ft 337 kts 258°
2026-05-04 01:58 43.99071 18.38743 12183 ft 326 kts 258°
2026-05-04 01:58 43.98506 18.35760 12048 ft 314 kts 258°
2026-05-04 01:58 43.97954 18.32852 11818 ft 309 kts 258°
2026-05-04 01:59 43.97419 18.30020 11500 ft 306 kts 258°
2026-05-04 01:59 43.96881 18.27168 11162 ft 305 kts 258°
2026-05-04 01:59 43.96345 18.24330 10839 ft 303 kts 257°
2026-05-04 01:59 43.95812 18.21509 10553 ft 300 kts 257°
2026-05-04 02:00 43.95233 18.18778 10431 ft 291 kts 247°
2026-05-04 02:00 43.94027 18.16590 10312 ft 285 kts 217°
2026-05-04 02:00 43.92271 18.15482 10196 ft 275 kts 188°
2026-05-04 02:00 43.90417 18.15603 10062 ft 263 kts 160°
2026-05-04 02:01 43.88865 18.16784 9940 ft 250 kts 134°
2026-05-04 02:01 43.87862 18.18650 9804 ft 237 kts 114°
2026-05-04 02:01 43.87119 18.20648 9668 ft 230 kts 114°
2026-05-04 02:01 43.86403 18.22582 9534 ft 222 kts 114°
2026-05-04 02:02 43.85704 18.24459 9323 ft 217 kts 114°
2026-05-04 02:02 43.85021 18.26338 8880 ft 223 kts 108°
2026-05-04 02:02 43.84753 18.28454 8466 ft 225 kts 90°
2026-05-04 02:02 43.84726 18.30621 8152 ft 225 kts 88°
2026-05-04 02:03 43.84734 18.32788 7872 ft 225 kts 87°
2026-05-04 02:03 43.84749 18.34947 7598 ft 224 kts 87°
2026-05-04 02:03 43.84828 18.37091 7321 ft 222 kts 74°
2026-05-04 02:03 43.85472 18.38986 7044 ft 217 kts 46°
2026-05-04 02:04 43.86709 18.40121 6753 ft 215 kts 21°
2026-05-04 02:04 43.88130 18.40796 6427 ft 217 kts 17°
2026-05-04 02:04 43.89578 18.41395 6111 ft 217 kts 15°
2026-05-04 02:04 43.91063 18.41754 5808 ft 216 kts
2026-05-04 02:05 43.92563 18.41962 5508 ft 217 kts
2026-05-04 02:05 43.94041 18.42152 5215 ft 217 kts
2026-05-04 02:05 43.95545 18.42217 5026 ft 217 kts 351°
2026-05-04 02:05 43.97021 18.41753 5011 ft 218 kts 344°
2026-05-04 02:06 43.98481 18.41172 5020 ft 218 kts 343°
2026-05-04 02:06 43.99807 18.40193 5227 ft 220 kts 316°
2026-05-04 02:06 44.00887 18.38704 5645 ft 218 kts 319°
2026-05-04 02:06 44.01835 18.37069 6045 ft 221 kts 294°
2026-05-04 02:07 44.02154 18.34980 6423 ft 221 kts 277°
2026-05-04 02:07 44.02287 18.32941 6715 ft 206 kts 276°
2026-05-04 02:07 44.02394 18.30972 6948 ft 205 kts 275°
2026-05-04 02:07 44.02495 18.29003 7004 ft 204 kts 275°
2026-05-04 02:08 44.02567 18.27037 7012 ft 204 kts 269°
2026-05-04 02:08 44.02308 18.25129 6809 ft 202 kts 249°
2026-05-04 02:08 44.01698 18.23368 6500 ft 202 kts 240°
2026-05-04 02:08 44.00943 18.21722 6178 ft 201 kts 237°
2026-05-04 02:09 44.00031 18.20274 5881 ft 200 kts 212°
2026-05-04 02:09 43.98717 18.19810 5547 ft 198 kts 174°
2026-05-04 02:09 43.97344 18.20278 5072 ft 205 kts 167°
2026-05-04 02:09 43.95994 18.20557 5006 ft 185 kts 173°
2026-05-04 02:10 43.94818 18.20719 5035 ft 160 kts 175°
2026-05-04 02:10 43.93751 18.20861 5015 ft 150 kts 171°
2026-05-04 02:10 43.92738 18.21146 4930 ft 148 kts 167°
2026-05-04 02:10 43.91741 18.21453 4825 ft 146 kts 167°
2026-05-04 02:11 43.90748 18.21749 4668 ft 146 kts 168°
2026-05-04 02:11 43.89761 18.22051 4558 ft 145 kts 166°
2026-05-04 02:11 43.88787 18.22409 4431 ft 144 kts 163°
2026-05-04 02:11 43.87843 18.22883 4164 ft 143 kts 153°
2026-05-04 02:12 43.87003 18.23601 3808 ft 141 kts 142°
2026-05-04 02:12 43.86256 18.24468 3515 ft 139 kts 136°
2026-05-04 02:12 43.85585 18.25433 3259 ft 139 kts 131°
2026-05-04 02:12 43.84994 18.26495 2933 ft 140 kts 122°
2026-05-04 02:13 43.84510 18.27655 2568 ft 138 kts 118°
2026-05-04 02:13 43.84070 18.28836 2302 ft 138 kts 117°
2026-05-04 02:13 43.83640 18.30016 1991 ft 137 kts 119°
2026-05-04 02:13 43.83204 18.31176 1797 ft 136 kts 119°
2026-05-04 02:14 43.82769 18.32329 1675 ft 131 kts 119°
2026-05-04 02:14 43.82415 18.33245 1680 ft 72 kts 117°
2026-05-04 02:14 43.82302 18.33548 1682 ft 19 kts 117°
2026-05-04 02:14 43.82294 18.33672 1689 ft 11 kts 24°
2026-05-04 02:15 43.82385 18.33652 1689 ft 16 kts 350°
2026-05-04 02:15 43.82492 18.33602 1685 ft 16 kts 355°
2026-05-04 02:15 43.82539 18.33622 1681 ft 1 kts 27°